Weather History for Miami, FL

Change the Weather History Date:

Thursday, March 28, 2013

  Actual Average Record
Temperature  
Mean Temperature 64 °F 74 °F  
Max Temperature 75 °F 81 °F 89 °F (1946)
Min Temperature 53 °F 66 °F 52 °F (1955)
Degree Days  
Heating Degree Days 1 0  
Month to date heating degree days 34 8  
Since 1 July heating degree days 70 124  
Cooling Degree Days 0 9  
Month to date cooling degree days 119 220  
Year to date cooling degree days 598 542  
Growing Degree Days 14 (Base 50)    
Moisture  
Dew Point 42 °F    
Average Humidity 48    
Maximum Humidity 71    
Minimum Humidity 25    
Precipitation  
Precipitation 0.00 in 0.11 in 2.52 in (1940)
Month to date precipitation 0.81 2.66  
Year to date precipitation 3.20 6.53  
Snow  
Snow 0.00 in - - ()
Month to date snowfall 0.0  
Since 1 July snowfall 0.0  
Snow Depth 0.00 in    
Sea Level Pressure  
Sea Level Pressure 30.23 in    
Wind  
Wind Speed 6 mph (NNE)    
Max Wind Speed 15 mph    
Max Gust Speed 22 mph    
Visibility 10 miles    
Events      
T = Trace of Precipitation, MM = Missing Value Source: NWS Daily Summary

Daily Weather History Graph

Daily Weather History Graph

Search for Another Location

Airport:

Trip Planner

Search our weather history database for the weather conditions in past years. The results will help you decide how hot, cold, wet, or windy it might be!

Date:

Astronomy

Mar. 28, 2013 Rise Set
Actual Time 7:16 AM EDT 7:36 PM EDT
Civil Twilight 6:53 AM EDT 7:59 PM EDT
Nautical Twilight 6:26 AM EDT 8:26 PM EDT
Astronomical Twilight 5:59 AM EDT 8:53 PM EDT
Moon 9:11 PM EDT (3/28) 7:54 AM EDT (3/28)
Length of Visible Light 13h 05m
Length of Day
12h 19m
Full, 98% of the Moon is Illuminated
Mar 28
Full
Apr 3
Last Quarter
Apr 10
New
Apr 18
First Quarter
Apr 25
Full

Hourly Weather History & Observations

Time (EDT) Temp. Dew Point Humidity Pressure Visibility Wind Dir Wind Speed Gust Speed Precip Events Conditions
12:53 AM 59.0 °F 42.1 °F 53% 30.23 in 10.0 mi Calm Calm - N/A   Clear
1:53 AM 59.0 °F 41.0 °F 51% 30.22 in 10.0 mi Calm Calm - N/A   Clear
2:53 AM 57.0 °F 43.0 °F 59% 30.22 in 10.0 mi NNW 5.8 mph - N/A   Clear
3:53 AM 57.0 °F 42.1 °F 57% 30.20 in 10.0 mi North 4.6 mph - N/A   Clear
4:53 AM 55.9 °F 41.0 °F 57% 30.20 in 10.0 mi NNW 4.6 mph - N/A   Clear
5:53 AM 55.0 °F 43.0 °F 64% 30.21 in 10.0 mi NNW 6.9 mph - N/A   Clear
6:53 AM 54.0 °F 43.0 °F 66% 30.22 in 10.0 mi NNW 4.6 mph - N/A   Partly Cloudy
7:53 AM 54.0 °F 44.1 °F 69% 30.23 in 10.0 mi NNW 4.6 mph - N/A   Partly Cloudy
8:53 AM 59.0 °F 39.9 °F 49% 30.24 in 10.0 mi North 5.8 mph - N/A   Partly Cloudy
9:53 AM 63.0 °F 41.0 °F 45% 30.27 in 10.0 mi North 4.6 mph - N/A   Partly Cloudy
10:53 AM 66.9 °F 43.0 °F 42% 30.28 in 10.0 mi Variable 4.6 mph - N/A   Partly Cloudy
11:53 AM 70.0 °F 43.0 °F 38% 30.28 in 10.0 mi Variable 4.6 mph - N/A   Partly Cloudy
12:53 PM 72.0 °F 39.0 °F 30% 30.26 in 10.0 mi NNW 9.2 mph - N/A   Partly Cloudy
1:53 PM 73.0 °F 36.0 °F 26% 30.23 in 10.0 mi Variable 4.6 mph - N/A   Partly Cloudy
2:53 PM 73.9 °F 35.1 °F 24% 30.21 in 10.0 mi Variable 4.6 mph - N/A   Partly Cloudy
3:53 PM 73.0 °F 46.0 °F 38% 30.18 in 10.0 mi Variable 4.6 mph - N/A   Partly Cloudy
4:53 PM 73.0 °F 44.1 °F 35% 30.18 in 10.0 mi ENE 11.5 mph 17.3 mph N/A   Partly Cloudy
5:53 PM 71.1 °F 44.1 °F 38% 30.18 in 10.0 mi ENE 8.1 mph 17.3 mph N/A   Partly Cloudy
6:53 PM 70.0 °F 42.1 °F 36% 30.19 in 10.0 mi ENE 9.2 mph - N/A   Partly Cloudy
7:53 PM 68.0 °F 44.1 °F 42% 30.22 in 10.0 mi ENE 9.2 mph - N/A   Scattered Clouds
8:53 PM 66.9 °F 44.1 °F 44% 30.23 in 10.0 mi NE 5.8 mph - N/A   Scattered Clouds
9:53 PM 66.0 °F 44.1 °F 45% 30.25 in 10.0 mi NNE 5.8 mph - N/A   Clear
10:53 PM 64.9 °F 42.1 °F 43% 30.26 in 10.0 mi NNE 5.8 mph - N/A   Clear
11:53 PM 64.0 °F 37.0 °F 37% 30.26 in 10.0 mi NNE 3.5 mph - N/A   Clear